Location: Eboldshausen
(51.7766°N, 10.0050°E)
Time: 06:02:51
(UTC+00:00)

Nadezhda 4 Rocket - Pass Details

Date: 15 November 2025
Orbit: 948 x 991 km, 82.9° (Epoch: 16 December)

Event Time Altitude Azimuth Distance (km) Brightness Sun altitude
Rises 17:23:06 0° 351° (N) 3,714 7.1 -17.4°
Reaches altitude 10° 17:25:41 10° 355° (N) 2,757 6.3 -17.8°
Maximum altitude 17:31:57 62° 76° (ENE) 1,096 3.9 -18.7°
Drops below altitude 10° 17:38:07 10° 157° (SSE) 2,712 6.1 -19.7°
Sets 17:40:38 0° 160° (SSE) 3,649 6.9 -20.1°
